This demonstration page uses our WeatherBlox Daily Observations layout. Learn more.

Left ArrowRight Arrow

36.19886, -115.1175

Hourly Observations for February 27, 2022

Temp ( °F °C ) Dew Point ( °F °C ) Humidity (%) Winds ( mph kmh ) Pressure ( in mb ) Visibility ( mi km ) Precip ( " mm )
12:53 am 00:53 Clear 41 5 7 -13.9 24 24 NW 3 6 30.49 1032 10 16 0.00 0.00
1:53 am 01:53 Clear 38 3.3 7 -13.9 27 27 WNW 3 6 30.48 1032 10 16 0.00 0.00
2:53 am 02:53 Clear 38 3.3 6 -14.4 26 26 WNW 5 7 30.48 1032 10 16 0.00 0.00
3:53 am 03:53 Clear 38 3.3 6 -14.4 26 26 Calm 30.48 1032 10 16 0.00 0.00
4:53 am 04:53 Clear 35 1.7 4 -15.6 27 27 W 3 6 30.49 1033 10 16 0.00 0.00
5:53 am 05:53 Clear 36 2.2 7 -13.9 30 30 WNW 6 9 30.50 1033 10 16 0.00 0.00
6:53 am 06:53 Sunny 37 2.8 2 -16.7 22 22 NNW 6 9 30.52 1033 10 16 0.00 0.00
7:53 am 07:53 Sunny 45 7.2 4 -15.6 18 18 N 3 6 30.52 1034 10 16 0.00 0.00
8:53 am 08:53 Sunny 49 9.4 3 -16.1 15 15 W 5 7 30.52 1034 10 16 0.00 0.00
9:53 am 09:53 Sunny 53 11.7 5 -15 14 14 VRB 3 6 30.50 1033 10 16 0.00 0.00
10:53 am 10:53 Sunny 56 13.3 5 -15 13 13 ESE 8 13 30.48 1032 10 16 0.00 0.00
11:53 am 11:53 Sunny 56 13.3 5 -15 13 13 SE 6 9 30.46 1031 10 16 0.00 0.00
12:53 pm 12:53 Sunny 60 15.6 5 -15 11 11 ESE 5 7 30.42 1030 10 16 0.00 0.00
1:53 pm 13:53 Sunny 60 15.6 5 -15 11 11 VRB 3 6 30.40 1029 10 16 0.00 0.00
2:53 pm 14:53 Sunny 62 16.7 3 -16.1 9 9 E 3 6 30.37 1029 10 16 0.00 0.00
3:53 pm 15:53 Sunny 63 17.2 5 -15 10 10 E 6 9 30.35 1028 10 16 0.00 0.00
4:53 pm 16:53 Sunny 62 16.7 4 -15.6 10 10 E 3 6 30.35 1028 10 16 0.00 0.00
5:53 pm 17:53 Clear 61 16.1 4 -15.6 10 10 Calm 30.36 1028 10 16 0.00 0.00
6:53 pm 18:53 Clear 57 13.9 7 -13.9 13 13 W 5 7 30.37 1029 10 16 0.00 0.00
7:53 pm 19:53 Clear 53 11.7 9 -12.8 17 17 WNW 6 9 30.37 1028 10 16 0.00 0.00
8:53 pm 20:53 Clear 50 10 7 -13.9 17 17 WNW 6 9 30.38 1029 10 16 0.00 0.00
9:53 pm 21:53 Clear 50 10 6 -14.4 17 17 Calm 30.38 1029 10 16 0.00 0.00
10:53 pm 22:53 Clear 50 10 4 -15.6 15 15 NW 6 9 30.37 1029 10 16 0.00 0.00
11:53 pm 23:53 Clear 51 10.6 3 -16.1 14 14 Calm 30.36 1028 10 16 0.00 0.00

Powered by AerisWeather